Radiation Dose at Monitoring Post of Fukushima Daini Nuclear Power Station
Date,Time,MP-1(microSv/h),MP-2(microSv/h),MP-3(microSv/h),MP-4(microSv/h),MP-5(microSv/h),MP-6(microSv/h),MP-7(microSv/h),Wind Direction,Wind Velocity(m/s),Rain
2023/11/11,00:00,0.148,0.134,0.215,0.203,0.209,0.120,0.076,west-northwest,8.5,No
2023/11/11,00:10,0.148,0.134,0.213,0.202,0.207,0.121,0.077,west-northwest,8.1,No
2023/11/11,00:20,0.149,0.133,0.214,0.202,0.209,0.122,0.077,northwest,5.2,No
2023/11/11,00:30,0.147,0.134,0.213,0.203,0.208,0.122,0.077,north-northwest,5.0,No
2023/11/11,00:40,0.148,0.134,0.214,0.204,0.209,0.121,0.077,north-northwest,7.3,No
2023/11/11,00:50,0.148,0.133,0.214,0.203,0.208,0.122,0.077,northwest,7.8,No
2023/11/11,01:00,0.148,0.135,0.215,0.202,0.210,0.121,0.076,northwest,7.0,No
2023/11/11,01:10,0.148,0.133,0.214,0.204,0.209,0.121,0.077,north-northwest,6.0,No
2023/11/11,01:20,0.148,0.134,0.214,0.202,0.209,0.121,0.078,north-northwest,6.8,No
2023/11/11,01:30,0.148,0.133,0.215,0.204,0.210,0.122,0.077,north-northwest,7.5,No
2023/11/11,01:40,0.147,0.134,0.214,0.203,0.209,0.122,0.077,north-northwest,7.3,No
2023/11/11,01:50,0.148,0.134,0.213,0.204,0.209,0.120,0.076,north-northwest,7.0,No
2023/11/11,02:00,0.147,0.134,0.213,0.202,0.207,0.121,0.077,north-northwest,6.3,No
2023/11/11,02:10,0.149,0.135,0.214,0.204,0.210,0.121,0.077,northwest,5.2,No
2023/11/11,02:20,0.149,0.135,0.215,0.203,0.209,0.121,0.077,north-northwest,6.7,No
2023/11/11,02:30,0.148,0.134,0.214,0.203,0.210,0.122,0.077,northwest,6.8,No
2023/11/11,02:40,0.148,0.133,0.216,0.204,0.209,0.121,0.077,north-northwest,6.0,No
2023/11/11,02:50,0.149,0.134,0.215,0.204,0.209,0.121,0.077,north-northwest,6.2,No
2023/11/11,03:00,0.148,0.135,0.215,0.205,0.208,0.122,0.077,north-northwest,6.2,No
2023/11/11,03:10,0.148,0.134,0.216,0.203,0.209,0.122,0.077,northwest,5.5,No
2023/11/11,03:20,0.148,0.135,0.215,0.204,0.210,0.121,0.077,north-northwest,6.2,No
2023/11/11,03:30,0.148,0.134,0.215,0.204,0.209,0.121,0.078,north-northwest,5.2,No
2023/11/11,03:40,0.149,0.134,0.216,0.202,0.210,0.122,0.077,north-northwest,6.5,No
2023/11/11,03:50,0.148,0.135,0.214,0.203,0.210,0.121,0.077,north-northwest,6.8,No
2023/11/11,04:00,0.148,0.134,0.214,0.203,0.209,0.122,0.078,north-northwest,6.8,No
2023/11/11,04:10,0.148,0.135,0.215,0.203,0.208,0.121,0.077,north-northwest,6.7,No
2023/11/11,04:20,0.148,0.134,0.215,0.205,0.209,0.121,0.077,north-northwest,5.1,No
2023/11/11,04:30,0.148,0.134,0.215,0.203,0.210,0.121,0.076,northwest,4.7,No
2023/11/11,04:40,0.148,0.134,0.215,0.204,0.209,0.121,0.077,north-northwest,7.7,No
2023/11/11,04:50,0.147,0.134,0.213,0.203,0.210,0.121,0.077,north-northwest,6.8,No
2023/11/11,05:00,0.147,0.134,0.214,0.203,0.208,0.120,0.077,northwest,5.7,No
2023/11/11,05:10,0.148,0.134,0.216,0.204,0.208,0.121,0.076,north-northwest,7.0,No
2023/11/11,05:20,0.147,0.134,0.214,0.203,0.209,0.121,0.077,north-northwest,6.6,No
2023/11/11,05:30,0.148,0.134,0.214,0.203,0.209,0.121,0.077,north-northwest,9.0,No
2023/11/11,05:40,0.148,0.134,0.215,0.204,0.208,0.122,0.077,north-northwest,8.6,No
2023/11/11,05:50,0.148,0.134,0.215,0.204,0.209,0.121,0.077,northwest,9.3,No
2023/11/11,06:00,0.148,0.134,0.215,0.204,0.209,0.121,0.077,northwest,7.4,No
2023/11/11,06:10,0.148,0.134,0.215,0.202,0.209,0.121,0.076,northwest,10.0,No
2023/11/11,06:20,0.148,0.135,0.214,0.203,0.209,0.122,0.077,northwest,7.6,No
2023/11/11,06:30,0.149,0.134,0.215,0.203,0.208,0.123,0.076,northwest,8.4,No
2023/11/11,06:40,0.147,0.134,0.215,0.203,0.208,0.121,0.077,northwest,6.8,No
2023/11/11,06:50,0.148,0.134,0.215,0.204,0.209,0.121,0.077,north-northwest,8.1,No
2023/11/11,07:00,0.149,0.134,0.216,0.203,0.208,0.121,0.077,northwest,7.1,No
2023/11/11,07:10,0.147,0.133,0.215,0.203,0.209,0.120,0.077,northwest,6.9,No
2023/11/11,07:20,0.149,0.134,0.215,0.204,0.209,0.122,0.077,north-northwest,5.7,No
2023/11/11,07:30,0.148,0.134,0.214,0.203,0.209,0.121,0.077,northwest,4.9,No
2023/11/11,07:40,0.147,0.134,0.216,0.203,0.209,0.121,0.077,northwest,5.0,No
2023/11/11,07:50,0.147,0.135,0.215,0.203,0.209,0.121,0.077,northwest,4.2,No
2023/11/11,08:00,0.148,0.135,0.214,0.202,0.209,0.122,0.077,north-northwest,3.9,No
2023/11/11,08:10,0.148,0.134,0.215,0.204,0.208,0.122,0.077,north-northwest,3.9,No
2023/11/11,08:20,0.149,0.133,0.215,0.203,0.209,0.121,0.076,northwest,2.2,No
2023/11/11,08:30,0.149,0.135,0.215,0.203,0.209,0.122,0.076,northwest,3.0,No
2023/11/11,08:40,0.148,0.134,0.214,0.205,0.210,0.121,0.078,northwest,5.1,No
2023/11/11,08:50,0.148,0.134,0.216,0.201,0.208,0.122,0.077,west-northwest,5.6,No
2023/11/11,09:00,0.148,0.133,0.214,0.204,0.210,0.121,0.076,west-northwest,5.8,No
2023/11/11,09:10,0.148,0.133,0.215,0.201,0.207,0.121,0.077,west-northwest,4.2,No
2023/11/11,09:20,0.149,0.134,0.216,0.204,0.210,0.121,0.077,north-northwest,3.2,No
2023/11/11,09:30,0.148,0.134,0.214,0.203,0.209,0.122,0.077,northwest,3.3,No
2023/11/11,09:40,0.148,0.135,0.215,0.203,0.209,0.122,0.076,north-northwest,5.7,No
2023/11/11,09:50,0.148,0.134,0.215,0.202,0.209,0.121,0.077,north-northwest,6.4,No
2023/11/11,10:00,0.148,0.134,0.214,0.204,0.208,0.121,0.076,northwest,6.1,No
2023/11/11,10:10,0.149,0.134,0.216,0.202,0.209,0.122,0.077,north-northwest,5.8,No
2023/11/11,10:20,0.148,0.134,0.215,0.203,0.210,0.122,0.077,north-northwest,6.0,No
2023/11/11,10:30,0.148,0.134,0.215,0.203,0.207,0.122,0.077,northwest,6.4,No
2023/11/11,10:40,0.148,0.134,0.214,0.205,0.209,0.122,0.078,northwest,6.4,No
2023/11/11,10:50,0.147,0.134,0.215,0.203,0.208,0.122,0.078,northwest,6.7,No
2023/11/11,11:00,0.149,0.136,0.213,0.204,0.209,0.121,0.078,northwest,6.4,No
2023/11/11,11:10,0.147,0.134,0.214,0.203,0.209,0.122,0.077,north-northwest,6.6,No
2023/11/11,11:20,0.149,0.135,0.214,0.203,0.210,0.121,0.077,north-northwest,7.0,No
2023/11/11,11:30,0.149,0.133,0.216,0.203,0.208,0.123,0.078,northwest,5.8,No
2023/11/11,11:40,0.149,0.136,0.216,0.205,0.210,0.122,0.077,northwest,6.0,No
2023/11/11,11:50,0.147,0.134,0.216,0.204,0.209,0.123,0.078,northwest,3.8,No
2023/11/11,12:00,0.149,0.134,0.215,0.204,0.209,0.121,0.077,north-northwest,3.2,No
2023/11/11,12:10,0.147,0.134,0.216,0.204,0.209,0.122,0.078,north,5.9,No
2023/11/11,12:20,0.149,0.135,0.214,0.202,0.208,0.122,0.077,north-northwest,5.3,No
2023/11/11,12:30,0.149,0.133,0.215,0.204,0.209,0.122,0.077,north-northwest,5.1,No
2023/11/11,12:40,0.148,0.135,0.216,0.202,0.207,0.121,0.077,north,5.4,No
2023/11/11,12:50,0.148,0.134,0.214,0.204,0.210,0.121,0.077,north,5.4,No
2023/11/11,13:00,0.149,0.134,0.215,0.204,0.208,0.122,0.077,north-northwest,3.7,No
2023/11/11,13:10,0.147,0.134,0.215,0.203,0.210,0.122,0.077,northwest,5.5,No
2023/11/11,13:20,0.149,0.135,0.216,0.205,0.210,0.121,0.078,northwest,3.6,No
2023/11/11,13:30,0.146,0.134,0.215,0.203,0.209,0.122,0.077,northwest,2.4,No
2023/11/11,13:40,0.148,0.135,0.216,0.204,0.209,0.122,0.077,north-northwest,3.2,No
2023/11/11,13:50,0.147,0.134,0.216,0.203,0.208,0.121,0.077,north,4.5,No
2023/11/11,14:00,0.148,0.134,0.216,0.203,0.209,0.122,0.077,north,5.3,No
2023/11/11,14:10,0.148,0.134,0.215,0.205,0.209,0.122,0.078,north-northwest,4.8,No
2023/11/11,14:20,0.149,0.134,0.217,0.204,0.211,0.121,0.078,north-northwest,4.4,No
2023/11/11,14:30,0.148,0.135,0.216,0.204,0.209,0.122,0.078,north-northwest,3.3,No
2023/11/11,14:40,0.150,0.135,0.216,0.204,0.210,0.121,0.078,north-northwest,5.2,No
2023/11/11,14:50,0.149,0.134,0.216,0.205,0.209,0.122,0.078,north-northwest,5.2,No
2023/11/11,15:00,0.149,0.135,0.216,0.205,0.210,0.122,0.077,north-northwest,5.2,No
2023/11/11,15:10,0.149,0.134,0.216,0.205,0.211,0.122,0.078,north-northwest,5.9,No
2023/11/11,15:20,0.148,0.135,0.216,0.206,0.210,0.122,0.077,north-northwest,4.7,No
2023/11/11,15:30,0.148,0.135,0.217,0.205,0.211,0.122,0.077,north-northwest,6.4,No
2023/11/11,15:40,0.149,0.135,0.217,0.206,0.211,0.122,0.078,north-northwest,7.8,No
2023/11/11,15:50,0.149,0.135,0.216,0.205,0.211,0.123,0.078,northwest,6.6,No
2023/11/11,16:00,0.149,0.135,0.217,0.205,0.210,0.121,0.077,north-northwest,7.2,No
2023/11/11,16:10,0.149,0.135,0.216,0.206,0.211,0.122,0.078,north-northwest,6.2,No
2023/11/11,16:20,0.149,0.135,0.217,0.205,0.211,0.122,0.077,north-northwest,6.9,No
2023/11/11,16:30,0.149,0.136,0.217,0.206,0.211,0.122,0.078,northwest,6.1,No
2023/11/11,16:40,0.148,0.136,0.217,0.206,0.210,0.122,0.078,north-northwest,5.1,No
2023/11/11,16:50,0.148,0.136,0.216,0.206,0.211,0.122,0.078,northwest,4.8,No
2023/11/11,17:00,0.150,0.135,0.218,0.205,0.209,0.122,0.077,north-northwest,4.5,No
2023/11/11,17:10,0.148,0.136,0.217,0.205,0.210,0.122,0.078,northwest,2.3,No
2023/11/11,17:20,0.149,0.135,0.217,0.206,0.210,0.122,0.078,northwest,3.2,No
2023/11/11,17:30,0.149,0.135,0.216,0.206,0.211,0.122,0.078,northwest,3.3,No
2023/11/11,17:40,0.149,0.135,0.218,0.204,0.208,0.123,0.077,north-northwest,2.4,No
2023/11/11,17:50,0.149,0.136,0.216,0.206,0.211,0.122,0.078,north-northwest,1.7,No
2023/11/11,18:00,0.149,0.136,0.216,0.205,0.209,0.123,0.078,north-northwest,2.0,No
2023/11/11,18:10,0.150,0.135,0.215,0.204,0.209,0.123,0.078,northwest,4.3,No
2023/11/11,18:20,0.149,0.135,0.217,0.206,0.210,0.123,0.078,north-northwest,4.9,No
2023/11/11,18:30,0.149,0.136,0.216,0.206,0.211,0.122,0.077,north-northwest,3.3,No
2023/11/11,18:40,0.148,0.134,0.216,0.205,0.210,0.123,0.078,north,2.6,No
2023/11/11,18:50,0.149,0.135,0.216,0.204,0.210,0.123,0.078,north-northwest,3.4,No
2023/11/11,19:00,0.149,0.135,0.215,0.205,0.210,0.122,0.078,north-northwest,4.7,No
2023/11/11,19:10,0.149,0.135,0.217,0.206,0.210,0.122,0.077,north-northwest,4.8,No
2023/11/11,19:20,0.151,0.135,0.216,0.206,0.209,0.122,0.078,north-northwest,4.6,No
2023/11/11,19:30,0.149,0.135,0.216,0.206,0.210,0.122,0.078,north-northwest,4.7,No
2023/11/11,19:40,0.149,0.135,0.217,0.204,0.210,0.122,0.077,north-northwest,4.4,No
2023/11/11,19:50,0.150,0.135,0.217,0.205,0.209,0.122,0.078,north-northwest,4.0,No
2023/11/11,20:00,0.148,0.135,0.216,0.206,0.209,0.123,0.078,north-northwest,3.4,No
2023/11/11,20:10,0.149,0.135,0.216,0.206,0.210,0.122,0.078,north-northwest,3.4,No
2023/11/11,20:20,0.149,0.135,0.217,0.205,0.210,0.123,0.078,north-northwest,3.7,No
2023/11/11,20:30,0.149,0.136,0.216,0.206,0.210,0.122,0.078,north-northwest,3.8,No
2023/11/11,20:40,0.149,0.135,0.216,0.206,0.210,0.122,0.078,north-northwest,4.3,No
2023/11/11,20:50,0.149,0.135,0.216,0.206,0.211,0.122,0.077,north-northwest,3.4,No
2023/11/11,21:00,0.149,0.135,0.217,0.206,0.211,0.123,0.078,north-northwest,3.8,No
2023/11/11,21:10,0.150,0.135,0.216,0.206,0.210,0.121,0.078,north-northwest,3.8,No
2023/11/11,21:20,0.148,0.136,0.217,0.206,0.209,0.122,0.077,north-northwest,4.3,No
2023/11/11,21:30,0.150,0.136,0.217,0.207,0.211,0.122,0.078,north-northwest,4.6,No
2023/11/11,21:40,0.150,0.135,0.217,0.206,0.209,0.122,0.078,north-northwest,5.0,No
2023/11/11,21:50,0.149,0.136,0.217,0.205,0.210,0.122,0.078,northwest,4.3,No
2023/11/11,22:00,0.149,0.137,0.217,0.205,0.210,0.122,0.078,northwest,4.8,No
2023/11/11,22:10,0.149,0.136,0.217,0.205,0.209,0.122,0.078,north-northwest,4.5,No
2023/11/11,22:20,0.149,0.134,0.216,0.205,0.210,0.122,0.078,north-northwest,5.4,No
2023/11/11,22:30,0.148,0.135,0.216,0.205,0.209,0.122,0.078,northwest,6.4,No
2023/11/11,22:40,0.149,0.135,0.217,0.205,0.211,0.122,0.077,northwest,6.4,No
2023/11/11,22:50,0.149,0.134,0.217,0.205,0.210,0.122,0.078,north-northwest,4.8,No
2023/11/11,23:00,0.150,0.135,0.216,0.205,0.210,0.122,0.078,north-northwest,3.4,No
2023/11/11,23:10,0.149,0.135,0.216,0.205,0.209,0.122,0.079,northwest,3.3,No
2023/11/11,23:20,0.148,0.134,0.216,0.205,0.210,0.122,0.077,northwest,4.5,No
2023/11/11,23:30,0.148,0.135,0.216,0.205,0.208,0.122,0.078,northwest,4.6,No
2023/11/11,23:40,0.150,0.134,0.216,0.205,0.210,0.121,0.078,northwest,4.6,No
2023/11/11,23:50,0.149,0.135,0.216,0.205,0.210,0.122,0.078,northwest,4.3,No
